OpenBCM V1.08-5-g2f4a (Linux)

Packet Radio Mailbox

IZ3LSV

[San Dona' di P. JN]

 Login: GUEST





  
CX2SA  > KEPS     19.07.13 02:19l 220 Lines 5761 Bytes #999 (0) @ WW
BID : ORB13199.W
Read: GUEST
Subj: Orbital Elements  13199.WEATHER
Path: IZ3LSV<IQ5KG<IK1NHL<CX2SA
Sent: 130719/0112Z @:CX2SA.SAL.URY.SA #:8671 [Salto] FBB7.00e $:ORB13199.W
From: CX2SA@CX2SA.SAL.URY.SA
To  : KEPS@AMSAT


HR AMSAT ORBITAL ELEMENTS FOR WEATHER SATELLITES
FROM WA5QGD FORT WORTH,TX July 18, 2013
BID: ORB13199.W
TO ALL RADIO AMATEURS BT

Satellite: NOAA-10
Catalog number: 16969
Epoch time:      13199.53328481
Element set:     430
Inclination:      098.5442 deg
RA of node:       226.6875 deg
Eccentricity:    0.0013143
Arg of perigee:   149.8459 deg
Mean anomaly:     358.7441 deg
Mean motion:   14.27652244 rev/day
Decay rate:        5.0e-07 rev/day^2
Epoch rev:           39641
Checksum:              324

Satellite: NOAA-11
Catalog number: 19531
Epoch time:      13199.27618066
Element set:     438
Inclination:      098.7103 deg
RA of node:       281.5753 deg
Eccentricity:    0.0011771
Arg of perigee:   167.7383 deg
Mean anomaly:     229.0225 deg
Mean motion:   14.15021671 rev/day
Decay rate:        4.9e-07 rev/day^2
Epoch rev:           28052
Checksum:              297

Satellite: NOAA-12
Catalog number: 21263
Epoch time:      13199.50645204
Element set:     903
Inclination:      098.6959 deg
RA of node:       224.6428 deg
Eccentricity:    0.0014978
Arg of perigee:   127.1817 deg
Mean anomaly:     044.1875 deg
Mean motion:   14.25576743 rev/day
Decay rate:        3.7e-07 rev/day^2
Epoch rev:           15301
Checksum:              312

Satellite: MET-3/5
Catalog number: 21655
Epoch time:      13199.77647567
Element set:     739
Inclination:      082.5532 deg
RA of node:       231.9747 deg
Eccentricity:    0.0014163
Arg of perigee:   055.3813 deg
Mean anomaly:     304.8643 deg
Mean motion:   13.17051962 rev/day
Decay rate:      -3.98e-06 rev/day^2
Epoch rev:            5409
Checksum:              328

Satellite: MET-2/21
Catalog number: 22782
Epoch time:      13199.16480279
Element set:     792
Inclination:      082.5479 deg
RA of node:       078.3465 deg
Eccentricity:    0.0023713
Arg of perigee:   121.5473 deg
Mean anomaly:     047.6248 deg
Mean motion:   13.83709761 rev/day
Decay rate:        1.1e-07 rev/day^2
Epoch rev:             392
Checksum:              314

Satellite: OKEAN-4
Catalog number: 23317
Epoch time:      13199.83128472
Element set:     272
Inclination:      082.5382 deg
RA of node:       020.1715 deg
Eccentricity:    0.0022621
Arg of perigee:   120.8491 deg
Mean anomaly:     070.2863 deg
Mean motion:   14.84543603 rev/day
Decay rate:       6.34e-06 rev/day^2
Epoch rev:            1363
Checksum:              271

Satellite: NOAA-14
Catalog number: 23455
Epoch time:      13199.49385428
Element set:     385
Inclination:      098.8026 deg
RA of node:       283.4580 deg
Eccentricity:    0.0008412
Arg of perigee:   266.9666 deg
Mean anomaly:     163.6872 deg
Mean motion:   14.13913435 rev/day
Decay rate:        2.9e-07 rev/day^2
Epoch rev:           95679
Checksum:              350

Satellite: NOAA-15
Catalog number: 25338
Epoch time:      13199.79776576
Element set:     806
Inclination:      098.7261 deg
RA of node:       189.8291 deg
Eccentricity:    0.0011535
Arg of perigee:   041.0914 deg
Mean anomaly:     319.1620 deg
Mean motion:   14.25244436 rev/day
Decay rate:       2.49e-06 rev/day^2
Epoch rev:           78935
Checksum:              337

Satellite: RESURS
Catalog number: 25394
Epoch time:      13199.05476601
Element set:     423
Inclination:      098.3642 deg
RA of node:       173.4180 deg
Eccentricity:    0.0002330
Arg of perigee:   132.4428 deg
Mean anomaly:     269.2264 deg
Mean motion:   14.24333454 rev/day
Decay rate:       -2.3e-07 rev/day^2
Epoch rev:           78075
Checksum:              279

Satellite: FENGYUN1
Catalog number: 25730
Epoch time:      13199.47699906
Element set:     919
Inclination:      098.8789 deg
RA of node:       158.6060 deg
Eccentricity:    0.0024519
Arg of perigee:   324.0222 deg
Mean anomaly:     184.1857 deg
Mean motion:   14.10578824 rev/day
Decay rate:       2.01e-06 rev/day^2
Epoch rev:           73045
Checksum:              326

Satellite: OKEAN-0
Catalog number: 25860
Epoch time:      13199.80584044
Element set:     997
Inclination:      097.9928 deg
RA of node:       161.8365 deg
Eccentricity:    0.0001948
Arg of perigee:   086.4375 deg
Mean anomaly:     001.1142 deg
Mean motion:   14.74645704 rev/day
Decay rate:       2.60e-06 rev/day^2
Epoch rev:           75301
Checksum:              316

Satellite: NOAA-16
Catalog number: 26536
Epoch time:      13199.69743520
Element set:     288
Inclination:      099.0398 deg
RA of node:       252.7664 deg
Eccentricity:    0.0011148
Arg of perigee:   050.0791 deg
Mean anomaly:     310.1834 deg
Mean motion:   14.12896811 rev/day
Decay rate:       1.60e-06 rev/day^2
Epoch rev:           66102
Checksum:              306

Satellite: NOAA-17
Catalog number: 27453
Epoch time:      13199.80269765
Element set:     201
Inclination:      098.3118 deg
RA of node:       212.2034 deg
Eccentricity:    0.0012728
Arg of perigee:   074.4645 deg
Mean anomaly:     285.8428 deg
Mean motion:   14.24604819 rev/day
Decay rate:       1.60e-06 rev/day^2
Epoch rev:           57522
Checksum:              306

Satellite: NOAA-18
Catalog number: 28654
Epoch time:      13199.48923455
Element set:     690
Inclination:      099.1021 deg
RA of node:       168.1600 deg
Eccentricity:    0.0015387
Arg of perigee:   119.3906 deg
Mean anomaly:     031.0943 deg
Mean motion:   14.11839138 rev/day
Decay rate:       1.80e-06 rev/day^2
Epoch rev:           42047
Checksum:              304

Satellite: NOAA-19
Catalog number: 33591
Epoch time:      13199.51148925
Element set:     870
Inclination:      098.9044 deg
RA of node:       141.3315 deg
Eccentricity:    0.0013673
Arg of perigee:   346.3539 deg
Mean anomaly:     144.3926 deg
Mean motion:   14.11528162 rev/day
Decay rate:       -3.4e-07 rev/day^2
Epoch rev:           22891
Checksum:              310



Read previous mail | Read next mail


 22.12.2024 05:00:34lGo back Go up